[[{"header":{"parameterUnit":"m.s-1","parameterCategory":2,"la1":30.2991,"la2":30.254,"lo1":-89.0895,"lo2":-89.0444,"dy":0.0017,"dx":0.0017,"nx":28,"ny":28,"refTime":"2025-06-17T03:00:00:Z","depth":"0","parameterNumber":2,"parameterNumberName":"U-component_of_CURRENTS"},"data":[0,0,0,0,0,0,0,0,0,0,0,0,0,0,0,0,0,0,0,0,0,0,0,0,0,0,0,0,0,0,0,0,0,0,0,0,0,0,0,0,0,0,0,0,0,0,0,0,0,0,0,0,0,0,0,0,0,0,0.1631,0.1631,0,0.1652,0.1653,0.1653,0.1655,0.1654,0.1654,0.1654,0.1668,0.1668,0.1669,0,0,0,0,0,0,0,0,0,0,0,0,0,0.1569,0.1571,0.1631,0.1631,0.1631,0.1652,0.1653,0.1653,0.1655,0.1654,0.1654,0.1653,0.1667,0.1668,0.1669,0,0,0,0,0,0,0,0,0,0,0,0,0,0.1596,0.1571,0.1631,0.1633,0.1633,0.1652,0.1653,0.1653,0.1655,0.1654,0.1654,0.1653,0.1667,0.1668,0.1669,0.1689,0,0,0.1673,0.1673,0,0,0,0,0,0,0,0,0.1594,0.1598,0.1633,0.1633,0.1633,0.1648,0.1636,0.1664,0.1655,0.1649,0.1654,0.1653,0.166,0.1661,0.167,0.1689,0.169,0.1673,0.1674,0.1674,0.1674,0,0,0,0,0,0,0,0.1592,0.1597,0.1641,0.1633,0.1633,0.1625,0.1629,0.1641,0.1659,0.1649,0.1649,0.1648,0.166,0.1669,0.167,0.169,0.1673,0.1674,0.1675,0.1675,0.1751,0.1753,0,0,0,0,0,0,0.1588,0.1596,0.1641,0.1642,0.161,0.1627,0.1631,0.1646,0.1659,0.166,0.1649,0.1648,0.1667,0.1669,0.167,0.1705,0.1674,0.1675,0.1676,0.175,0.1752,0.1753,0,0,0,0,0,0,0.1587,0.1593,0.164,0.1616,0.1622,0.1628,0.1645,0.1647,0.1656,0.1658,0.1659,0.1656,0.1667,0.1669,0.169,0.1705,0.1676,0.1677,0.1748,0.1751,0.1752,0.1767,0,0,0,0,0,0,0.1585,0.1593,0.1608,0.1617,0.1623,0.1663,0.1646,0.1647,0.1655,0.1655,0.1665,0.1666,0.1666,0.1689,0.1691,0.1706,0.1678,0.1747,0.1749,0.1752,0.1765,0.177,0.1774,0,0,0,0,0,0.1583,0.1601,0.1609,0.1614,0.1643,0.1663,0.1667,0.1669,0.1656,0.1673,0.1675,0.1666,0.1707,0.1691,0.1693,0.1709,0.1745,0.1749,0.1752,0.1763,0.1769,0.1773,0,0,0,0,0,0,0.1603,0.1603,0.1612,0.1636,0.1655,0.1663,0.167,0.1672,0.1687,0.168,0.1681,0.1683,0.1707,0.1711,0.1694,0.1741,0.1726,0.1729,0.1734,0.1739,0.1743,0.1755,0.1678,0,0,0,0,0,0.1611,0.1613,0.1629,0.1654,0.1656,0.1665,0.1673,0.1677,0.1686,0.1691,0.1699,0.1709,0.1724,0.1732,0.1747,0.1772,0.179,0.1787,0.1791,0.1794,0.1808,0.1833,0.184,0.1763,0.1763,0.1763,0,0,0.1628,0.1627,0.1632,0.1655,0.1662,0.1675,0.1669,0.1681,0.1698,0.1691,0.1714,0.1722,0.1734,0.1762,0.1774,0.1766,0.1831,0.1798,0.1801,0.1813,0.1836,0.1844,0.185,0.1765,0.1765,0.1764,0,0,0.164,0.1659,0.1654,0.1668,0.1676,0.1686,0.169,0.1703,0.1715,0.174,0.1739,0.1761,0.1781,0.18,0.1808,0.1848,0.1851,0.1849,0.1879,0.1903,0.1909,0.1915,0.1966,0.1976,0.1852,0.1852,0.1852,0,0.1659,0.1663,0.1663,0.1665,0.1674,0.1689,0.1698,0.1719,0.1744,0.1759,0.1749,0.1795,0.1801,0.1841,0.1856,0.1856,0.1877,0.1853,0.1907,0.1913,0.1918,0.1969,0.198,0.1853,0.1853,0.1853,0.1853,0,0.1668,0.1672,0.1672,0.1676,0.1693,0.1706,0.1729,0.1753,0.1762,0.1783,0.1824,0.1841,0.187,0.1877,0.1877,0.1925,0.1932,0.1905,0.1889,0.1926,0.1979,0.1989,0.1855,0.1855,0.1854,0.1854,0,0,0.1697,0.1678,0.1681,0.1674,0.1697,0.171,0.1743,0.178,0.18,0.1836,0.1863,0.1907,0.192,0.1933,0.1941,0.1967,0.2027,0.1956,0.1956,0.2,0.2103,0.2005,0.2008,0.2001,0.2002,0.2004,0.213,0,0.1703,0.1694,0.1692,0.1701,0.1696,0.1723,0.1753,0.1792,0.1823,0.1858,0.1895,0.1924,0.194,0.1948,0.1984,0.2015,0.2054,0.1997,0.2068,0.2071,0.1971,0.2015,0.1879,0.197,0.2141,0.2143,0.2144,0,0.1709,0.1695,0.1693,0.169,0.1693,0.1708,0.1752,0.1781,0.1842,0.1866,0.1917,0.1944,0.2017,0.1994,0.2105,0.2067,0.2095,0.2116,0.212,0.203,0.1991,0.1958,0.1984,0.195,0.2161,0.216,0.2158,0,0.1706,0.1698,0.169,0.1694,0.17,0.1708,0.1724,0.1781,0.1804,0.1869,0.1893,0.1982,0.201,0.2079,0.2149,0.2127,0.2249,0.2217,0.2168,0.2163,0.2062,0.2044,0.2053,0.2281,0.2281,0.228,0.228,0,0.1705,0.1697,0.168,0.1674,0.1672,0.1687,0.1702,0.174,0.1784,0.1808,0.1892,0.1925,0.2025,0.2105,0.2169,0.2216,0.2275,0.2191,0.2184,0.2065,0.2046,0.2022,0.1958,0.2285,0.2284,0.2283,0.2282,0,0.169,0.1686,0.1667,0.1662,0.1659,0.1657,0.1667,0.1681,0.1738,0.1769,0.1789,0.1894,0.1992,0.2104,0.2209,0.2217,0.2197,0.2276,0.2143,0.2115,0.1986,0.1925,0.1833,0.18,0.2241,0.2239,0.2237,0,0.1677,0.1662,0.1647,0.1636,0.1625,0.1618,0.1614,0.165,0.1662,0.1745,0.1755,0.1856,0.1896,0.2043,0.2086,0.2184,0.214,0.2098,0.2009,0.1971,0.1902,0.182,0.1795,0.1914,0.191,0.1906,0.1904,0,0.1638,0.1636,0.1619,0.1599,0.1583,0.1569,0.1562,0.1559,0.1603,0.1633,0.1673,0.1705,0.1803,0.1822,0.1925,0.1959,0.1942,0.2027,0.2022,0.1668,0.1546,0.1513,0.1872,0.1874,0.1877,0.1879,0.1881,0.1882,0.1605,0.159,0.1572,0.1552,0.1539,0.1517,0.1491,0.1482,0.148,0.1491,0.1556,0.1559,0.161,0.1707,0.174,0.1705,0.1707,0.1661,0.1609,0.155,0.1435,0.173,0.1683,0.1684,0.1686,0.1687,0.1689,0,0.1554,0.1542,0.1526,0.1498,0.1469,0.1478,0.1453,0.1414,0.1374,0.1376,0.1379,0.138,0.1374,0.1436,0.1426,0.134,0.1294,0.1302,0.1185,0.12,0.1509,0.1412,0.1258,0.1258,0.1258,0.1258,0.1259,0.1259,0.1523,0.1492,0.1486,0.1428,0.141,0.1354,0.1328,0.1274,0.1255,0.1185,0.1152,0.1165,0.1211,0.1147,0.1087,0.1059,0.1004,0.0862,0.0948,0.1182,0.1214,0.1245,0.1146,0.0938,0.0938,0.0619,0.0616,0.0614]},{"header":{"parameterUnit":"m.s-1","parameterCategory":2,"la1":30.2991,"la2":30.254,"lo1":-89.0895,"lo2":-89.0444,"dy":0.0017,"dx":0.0017,"nx":28,"ny":28,"refTime":"2025-06-17T03:00:00:Z","depth":"0","parameterNumber":3,"parameterNumberName":"V-component_of_CURRENTS"},"data":[0,0,0,0,0,0,0,0,0,0,0,0,0,0,0,0,0,0,0,0,0,0,0,0,0,0,0,0,0,0,0,0,0,0,0,0,0,0,0,0,0,0,0,0,0,0,0,0,0,0,0,0,0,0,0,0,0,0,0.0624,0.0624,0,0.0671,0.0672,0.0672,0.0694,0.0694,0.0693,0.0693,0.0641,0.064,0.0639,0,0,0,0,0,0,0,0,0,0,0,0,0,0.0517,0.0519,0.0624,0.0624,0.0624,0.0671,0.0672,0.0673,0.0694,0.0694,0.0693,0.0693,0.0641,0.064,0.0639,0,0,0,0,0,0,0,0,0,0,0,0,0,0.0566,0.052,0.0624,0.0639,0.064,0.0671,0.0672,0.0673,0.0694,0.0694,0.0693,0.0693,0.0642,0.064,0.0639,0.0637,0,0,0.0633,0.0633,0,0,0,0,0,0,0,0,0.0563,0.0571,0.0636,0.0638,0.064,0.0674,0.0615,0.0655,0.0694,0.0676,0.0693,0.0693,0.0641,0.064,0.0655,0.0634,0.0632,0.0633,0.0632,0.0632,0.0631,0,0,0,0,0,0,0,0.056,0.0568,0.0645,0.0636,0.0639,0.0631,0.0638,0.0623,0.0661,0.0678,0.0679,0.068,0.0642,0.0656,0.0653,0.0631,0.0633,0.0632,0.0631,0.063,0.0597,0.0597,0,0,0,0,0,0,0.0552,0.0566,0.0643,0.0646,0.0597,0.0633,0.0641,0.0665,0.0663,0.0662,0.0681,0.0681,0.0659,0.0655,0.0651,0.0657,0.0632,0.063,0.0629,0.0597,0.0597,0.0597,0,0,0,0,0,0,0.055,0.056,0.0641,0.0603,0.0613,0.0636,0.0662,0.0666,0.0683,0.0666,0.0664,0.0693,0.0659,0.0654,0.0647,0.0654,0.0629,0.0628,0.0597,0.0597,0.0597,0.0662,0,0,0,0,0,0,0.0547,0.0559,0.0575,0.0604,0.0615,0.0668,0.0662,0.0668,0.0683,0.0685,0.0675,0.067,0.0658,0.0649,0.0645,0.0652,0.0626,0.0596,0.0597,0.0597,0.066,0.0665,0.0669,0,0,0,0,0,0.0544,0.0563,0.0577,0.0585,0.0637,0.0668,0.0674,0.0689,0.0684,0.0701,0.0692,0.0671,0.0647,0.0649,0.0643,0.065,0.0596,0.0597,0.0597,0.0658,0.0664,0.0669,0,0,0,0,0,0,0.0529,0.0568,0.0583,0.0616,0.0644,0.0671,0.0682,0.0692,0.0702,0.0696,0.0678,0.0674,0.067,0.0648,0.065,0.0638,0.0615,0.0615,0.0664,0.0669,0.0673,0.0684,0.0625,0,0,0,0,0,0.0534,0.0555,0.0595,0.0619,0.0635,0.066,0.0673,0.0687,0.0697,0.0702,0.0697,0.068,0.0668,0.0659,0.0647,0.0642,0.0624,0.0639,0.0644,0.0648,0.0652,0.0618,0.062,0.0598,0.0598,0.0598,0,0,0.053,0.0555,0.0566,0.0616,0.0637,0.0669,0.0668,0.0693,0.0717,0.0691,0.0714,0.0698,0.067,0.0672,0.0666,0.0654,0.065,0.0648,0.0652,0.0654,0.0618,0.062,0.0622,0.0598,0.0598,0.0598,0,0,0.0531,0.0563,0.0583,0.0611,0.0647,0.0671,0.0679,0.0716,0.0731,0.0751,0.0734,0.0725,0.0713,0.0701,0.0688,0.0705,0.0676,0.0695,0.0726,0.0693,0.0695,0.0696,0.0706,0.0708,0.0695,0.0695,0.0695,0,0.0528,0.0567,0.0592,0.0623,0.0645,0.0673,0.0705,0.0729,0.0758,0.0772,0.0761,0.075,0.0727,0.0723,0.0732,0.0716,0.0704,0.0713,0.07,0.07,0.07,0.071,0.0711,0.0698,0.0698,0.0698,0.0697,0,0.0551,0.0583,0.0596,0.0649,0.0678,0.0707,0.0747,0.0776,0.0791,0.0814,0.0823,0.0799,0.079,0.078,0.0762,0.0753,0.0751,0.0713,0.0691,0.0707,0.0716,0.0716,0.0703,0.0702,0.0701,0.07,0,0,0.0549,0.0602,0.061,0.0634,0.0695,0.0721,0.0766,0.0818,0.0848,0.0863,0.0887,0.0868,0.086,0.0844,0.0817,0.079,0.0791,0.0757,0.0754,0.0777,0.075,0.0811,0.0816,0.0747,0.0747,0.0746,0.0769,0,0.0566,0.0611,0.0642,0.0693,0.0722,0.0765,0.0807,0.0853,0.0886,0.0919,0.09,0.0908,0.0882,0.0874,0.0847,0.0808,0.0787,0.079,0.0723,0.0722,0.078,0.0816,0.0786,0.0808,0.0768,0.0768,0.0768,0,0.0593,0.0616,0.0659,0.0716,0.0736,0.0769,0.0841,0.0884,0.0937,0.0961,0.0972,0.0965,0.0956,0.0906,0.0863,0.0867,0.0815,0.0776,0.0775,0.0806,0.0781,0.0777,0.0808,0.0811,0.0767,0.0767,0.0767,0,0.0582,0.0638,0.0665,0.0685,0.0752,0.0778,0.082,0.089,0.0934,0.0982,0.1015,0.1007,0.0999,0.094,0.0897,0.087,0.0844,0.0789,0.0797,0.0802,0.0751,0.0752,0.078,0.0731,0.0731,0.0731,0.0731,0,0.0596,0.062,0.0655,0.0672,0.0712,0.0764,0.0822,0.0874,0.0942,0.0999,0.1025,0.1058,0.0999,0.099,0.0925,0.09,0.0869,0.0822,0.081,0.0778,0.0781,0.076,0.0737,0.0731,0.0731,0.0731,0.0731,0,0.0581,0.0607,0.064,0.0691,0.0706,0.0734,0.0818,0.0866,0.0941,0.1011,0.1027,0.1092,0.1101,0.1065,0.0986,0.095,0.09,0.0882,0.0885,0.0874,0.0893,0.0874,0.086,0.0894,0.0902,0.0904,0.0905,0,0.0574,0.0586,0.0635,0.0654,0.0673,0.0719,0.076,0.0847,0.0907,0.1036,0.1068,0.1116,0.1153,0.1129,0.1078,0.1025,0.0954,0.095,0.0883,0.092,0.0886,0.0855,0.0881,0.0846,0.0846,0.0847,0.0848,0,0.0554,0.0572,0.0595,0.0632,0.0667,0.0715,0.0781,0.0829,0.0944,0.1019,0.1122,0.1159,0.1185,0.1154,0.1121,0.1059,0.0962,0.0964,0.0965,0.0835,0.083,0.0848,0.0842,0.0853,0.0852,0.0852,0.0852,0.0852,0.0535,0.0546,0.058,0.0617,0.0658,0.0718,0.0766,0.0844,0.0937,0.107,0.1123,0.1209,0.1185,0.1158,0.1103,0.1038,0.1024,0.0962,0.0936,0.0903,0.0935,0.0991,0.1012,0.1012,0.1013,0.1013,0.1013,0,0.0526,0.0543,0.0569,0.0624,0.0664,0.0694,0.0789,0.0849,0.0949,0.1076,0.1165,0.125,0.1177,0.1131,0.1058,0.1008,0.096,0.0968,0.088,0.091,0.0917,0.0917,0.0962,0.0962,0.0962,0.0962,0.0962,0.0962,0.0526,0.0547,0.0565,0.0617,0.0653,0.0724,0.0778,0.0866,0.0979,0.1146,0.1265,0.1367,0.1405,0.1103,0.0991,0.0955,0.0936,0.0885,0.0943,0.0899,0.0895,0.0891,0.0889,0.0927,0.0927,0.0922,0.0922,0.0921]}],[{"header":{"parameterUnit":"m.s-1","parameterCategory":2,"la1":30.2991,"la2":30.254,"lo1":-89.0895,"lo2":-89.0444,"dy":0.0017,"dx":0.0017,"nx":28,"ny":28,"refTime":"2025-06-17T03:00:00:Z","depth":"2","parameterNumber":2,"parameterNumberName":"U-component_of_CURRENTS"},"data":[0,0,0,0,0,0,0,0,0,0,0,0,0,0,0,0,0,0,0,0,0,0,0,0,0,0,0,0,0,0,0,0,0,0,0,0,0,0,0,0,0,0,0,0,0,0,0,0,0,0,0,0,0,0,0,0,0,0,0.154,0.154,0,0.1579,0.158,0.1581,0.1595,0.1595,0.1594,0.1594,0.1614,0.1615,0.1616,0,0,0,0,0,0,0,0,0,0,0,0,0,0.1476,0.1477,0.154,0.154,0.1541,0.1579,0.158,0.1581,0.1595,0.1595,0.1594,0.1594,0.1614,0.1615,0.1616,0,0,0,0,0,0,0,0,0,0,0,0,0,0.151,0.1477,0.154,0.1551,0.1553,0.1579,0.158,0.1581,0.1595,0.1595,0.1594,0.1594,0.1614,0.1615,0.1616,0.1632,0,0,0.162,0.162,0,0,0,0,0,0,0,0,0.1508,0.1512,0.1549,0.155,0.1552,0.158,0.1565,0.1596,0.1595,0.1581,0.1594,0.1594,0.16,0.1603,0.1614,0.1633,0.1634,0.162,0.162,0.1621,0.1621,0,0,0,0,0,0,0,0.1505,0.1511,0.1557,0.155,0.1551,0.1554,0.1558,0.1571,0.1593,0.1582,0.1583,0.1585,0.1601,0.1612,0.1614,0.1634,0.162,0.1621,0.1622,0.1622,0.1699,0.17,0,0,0,0,0,0,0.1498,0.1509,0.1556,0.1558,0.1527,0.1555,0.156,0.1573,0.1594,0.1596,0.1585,0.1585,0.1611,0.1613,0.1615,0.1652,0.1621,0.1622,0.1623,0.1698,0.1699,0.1701,0,0,0,0,0,0,0.1497,0.1502,0.1554,0.1532,0.1539,0.1557,0.1571,0.1574,0.1592,0.1596,0.1598,0.16,0.161,0.1613,0.1633,0.1652,0.1623,0.1624,0.1696,0.1698,0.17,0.1716,0,0,0,0,0,0,0.1495,0.1502,0.1525,0.1532,0.154,0.1591,0.1571,0.1575,0.1593,0.1594,0.161,0.1611,0.161,0.1631,0.1634,0.1654,0.1625,0.1694,0.1697,0.1699,0.1714,0.1719,0.1722,0,0,0,0,0,0.1493,0.1507,0.1526,0.1532,0.1565,0.1592,0.1598,0.1608,0.1594,0.162,0.1616,0.1611,0.1649,0.1633,0.1636,0.1656,0.1693,0.1696,0.1699,0.1712,0.1718,0.1722,0,0,0,0,0,0,0.1516,0.1511,0.153,0.1553,0.1586,0.1594,0.1606,0.1615,0.1633,0.1624,0.1623,0.1625,0.1649,0.1655,0.1637,0.1689,0.1673,0.1677,0.1682,0.1687,0.1691,0.1698,0.1626,0,0,0,0,0,0.1529,0.1528,0.1549,0.1579,0.1581,0.1599,0.1612,0.1624,0.1631,0.1639,0.1646,0.1653,0.1665,0.1676,0.1688,0.1716,0.1717,0.1735,0.1739,0.1742,0.1753,0.1757,0.1762,0.1711,0.1711,0.1711,0,0,0.1548,0.1548,0.1552,0.1583,0.1594,0.161,0.1606,0.1626,0.1647,0.1637,0.166,0.1665,0.1674,0.1702,0.1715,0.171,0.1761,0.1746,0.1749,0.1757,0.176,0.1765,0.1769,0.1713,0.1712,0.1712,0,0,0.1558,0.1583,0.1572,0.1596,0.1616,0.1628,0.1635,0.1652,0.1666,0.1694,0.1686,0.1705,0.1727,0.174,0.1746,0.1784,0.1777,0.1793,0.1824,0.1828,0.1832,0.1835,0.1849,0.1853,0.18,0.18,0.18,0,0.1584,0.1582,0.1585,0.1589,0.1607,0.1632,0.1644,0.1668,0.1698,0.1712,0.1704,0.1735,0.1745,0.1772,0.1792,0.1793,0.1796,0.1799,0.1831,0.1835,0.1838,0.1851,0.1856,0.1801,0.1801,0.1801,0.1801,0,0.1588,0.1594,0.159,0.1598,0.1628,0.1645,0.1672,0.1703,0.1715,0.1739,0.177,0.178,0.1804,0.1811,0.1815,0.185,0.1846,0.1828,0.1813,0.1843,0.1856,0.1861,0.1803,0.1803,0.1802,0.1802,0,0,0.1618,0.159,0.1598,0.1594,0.1632,0.1652,0.1688,0.1729,0.1751,0.1785,0.1798,0.1841,0.1853,0.1863,0.1868,0.188,0.191,0.1873,0.1873,0.1878,0.1928,0.1684,0.1665,0.1891,0.1892,0.1893,0.193,0,0.1623,0.1608,0.161,0.1628,0.1616,0.166,0.1694,0.1745,0.1779,0.1802,0.1822,0.1842,0.187,0.1875,0.1898,0.1914,0.1922,0.1903,0.1906,0.1907,0.1677,0.1662,0.1623,0.1629,0.1934,0.1935,0.1935,0,0.1633,0.161,0.1608,0.161,0.1615,0.1642,0.1703,0.1739,0.179,0.1812,0.1849,0.1863,0.1916,0.1895,0.1966,0.1954,0.1948,0.1946,0.1946,0.1715,0.1669,0.1648,0.1626,0.1942,0.1942,0.1941,0.1941,0,0.1635,0.1622,0.1613,0.1622,0.1631,0.1649,0.1673,0.174,0.1766,0.1812,0.1833,0.1893,0.1907,0.1938,0.1978,0.1975,0.201,0.1999,0.1772,0.1758,0.172,0.1696,0.2002,0.2002,0.2002,0.2002,0.2002,0,0.1633,0.1627,0.1605,0.1601,0.1606,0.1631,0.1658,0.1702,0.174,0.1763,0.1835,0.185,0.1915,0.1948,0.1976,0.189,0.2021,0.1766,0.1735,0.1721,0.1698,0.1967,0.1963,0.2003,0.2003,0.2003,0.2003,0,0.1624,0.1616,0.1598,0.1595,0.1594,0.1604,0.1624,0.1644,0.1708,0.1729,0.1741,0.1826,0.1847,0.1895,0.1922,0.185,0.1815,0.1742,0.1714,0.1671,0.1568,0.1565,0.1488,0.1479,0.1472,0.1466,0.1461,0,0.1607,0.159,0.1586,0.158,0.1569,0.1571,0.1572,0.1615,0.1629,0.171,0.1707,0.1734,0.1717,0.167,0.1572,0.1513,0.1632,0.1385,0.132,0.1529,0.1509,0.1517,0.1523,0.1329,0.1324,0.1319,0.1315,0,0.1563,0.1577,0.1564,0.1547,0.1538,0.1527,0.1523,0.152,0.1571,0.1601,0.1627,0.1613,0.151,0.138,0.1231,0.1202,0.1385,0.1266,0.1547,0.1395,0.1362,0.1346,0.1363,0.1273,0.1277,0.128,0.1282,0.1284,0.154,0.1532,0.1527,0.1503,0.1502,0.1479,0.1454,0.1438,0.1435,0.1421,0.1473,0.1392,0.131,0.099,0.0951,0.0904,0.0942,0.0947,0.0973,0.1001,0.0904,0.0851,0.0654,0.0654,0.0655,0.0655,0.0656,0,0.1484,0.1483,0.1474,0.1456,0.1436,0.1448,0.142,0.1362,0.1309,0.1261,0.1229,0.1024,0.0886,0.0849,0.0676,0.0563,0.0685,0.0579,0.08,0.0838,0.0873,0.0782,0.0494,0.0493,0.0493,0.0493,0,0,0.1455,0.1427,0.1415,0.1371,0.1372,0.1322,0.1293,0.1205,0.1141,0.0976,0.0884,0.0841,0.0803,0.0636,0.0588,0.054,0.0712,0.0527,0.0659,0.0962,0.0998,0.1074,0.0968,0,0,0,0,0]},{"header":{"parameterUnit":"m.s-1","parameterCategory":2,"la1":30.2991,"la2":30.254,"lo1":-89.0895,"lo2":-89.0444,"dy":0.0017,"dx":0.0017,"nx":28,"ny":28,"refTime":"2025-06-17T03:00:00:Z","depth":"2","parameterNumber":3,"parameterNumberName":"V-component_of_CURRENTS"},"data":[0,0,0,0,0,0,0,0,0,0,0,0,0,0,0,0,0,0,0,0,0,0,0,0,0,0,0,0,0,0,0,0,0,0,0,0,0,0,0,0,0,0,0,0,0,0,0,0,0,0,0,0,0,0,0,0,0,0,0.0452,0.0453,0,0.0511,0.0512,0.0512,0.0547,0.0547,0.0547,0.0547,0.0508,0.0507,0.0505,0,0,0,0,0,0,0,0,0,0,0,0,0,0.0352,0.0354,0.0452,0.0453,0.0453,0.0511,0.0512,0.0513,0.0547,0.0547,0.0547,0.0547,0.0508,0.0507,0.0505,0,0,0,0,0,0,0,0,0,0,0,0,0,0.0403,0.0355,0.0452,0.0477,0.0479,0.0511,0.0512,0.0513,0.0547,0.0547,0.0547,0.0547,0.0508,0.0507,0.0505,0.0494,0,0,0.05,0.0499,0,0,0,0,0,0,0,0,0.04,0.0407,0.0472,0.0475,0.0478,0.0521,0.0462,0.0501,0.0547,0.0523,0.0547,0.0548,0.0502,0.0501,0.0515,0.0492,0.049,0.05,0.0499,0.0498,0.0498,0,0,0,0,0,0,0,0.0397,0.0404,0.0476,0.0473,0.0476,0.0479,0.0486,0.047,0.051,0.0525,0.0527,0.0532,0.0503,0.0517,0.0514,0.0489,0.05,0.0499,0.0498,0.0497,0.0461,0.0461,0,0,0,0,0,0,0.0388,0.0401,0.0475,0.0478,0.0437,0.048,0.0489,0.0508,0.0513,0.0514,0.0532,0.0533,0.0519,0.0516,0.0512,0.0524,0.0498,0.0497,0.0496,0.0461,0.0461,0.0461,0,0,0,0,0,0,0.0386,0.0395,0.0472,0.0439,0.0449,0.0482,0.0503,0.0509,0.0536,0.0519,0.0519,0.0554,0.0519,0.0515,0.0509,0.0522,0.0496,0.0495,0.0461,0.0461,0.0461,0.0531,0,0,0,0,0,0,0.0383,0.0394,0.0415,0.0439,0.045,0.051,0.0503,0.051,0.0537,0.054,0.0537,0.0533,0.0519,0.0512,0.0507,0.0519,0.0493,0.0461,0.0461,0.0461,0.0529,0.0533,0.0537,0,0,0,0,0,0.038,0.0397,0.0417,0.0426,0.0476,0.0511,0.0518,0.0541,0.0538,0.0563,0.055,0.0534,0.0508,0.0511,0.0505,0.0517,0.0461,0.0461,0.0461,0.0527,0.0532,0.0537,0,0,0,0,0,0,0.0371,0.0404,0.0425,0.0455,0.0493,0.0517,0.0533,0.0549,0.0562,0.0558,0.0538,0.0534,0.0532,0.0511,0.0513,0.0504,0.048,0.0479,0.0531,0.0537,0.0541,0.0549,0.0492,0,0,0,0,0,0.0379,0.0398,0.0439,0.0466,0.0481,0.0511,0.0529,0.055,0.0559,0.0567,0.0562,0.0544,0.0527,0.0522,0.0506,0.0504,0.0468,0.0504,0.0509,0.0513,0.0514,0.0462,0.0462,0.0461,0.0461,0.0461,0,0,0.0378,0.0402,0.0412,0.0465,0.0488,0.0521,0.0523,0.0556,0.0582,0.0555,0.0578,0.0561,0.0528,0.0529,0.0526,0.0515,0.0497,0.0513,0.0517,0.0516,0.0462,0.0462,0.0463,0.0461,0.0461,0.0461,0,0,0.0379,0.0413,0.0429,0.0463,0.0508,0.0532,0.0545,0.0583,0.06,0.0623,0.0601,0.0591,0.058,0.056,0.0544,0.0559,0.0521,0.0556,0.0589,0.054,0.0539,0.0539,0.0508,0.0504,0.056,0.056,0.056,0,0.0381,0.0415,0.0442,0.0472,0.05,0.0538,0.0571,0.0595,0.0629,0.0642,0.0637,0.0612,0.0591,0.0573,0.0586,0.057,0.0543,0.0577,0.0546,0.0545,0.0543,0.0511,0.0506,0.0564,0.0563,0.0563,0.0563,0,0.0399,0.0432,0.0442,0.0496,0.0534,0.0566,0.0608,0.0643,0.0664,0.0687,0.0689,0.0657,0.0645,0.0634,0.0619,0.0599,0.0585,0.0558,0.0537,0.0547,0.0514,0.0507,0.0568,0.0567,0.0566,0.0565,0,0,0.0398,0.0442,0.0456,0.0481,0.0551,0.0583,0.0628,0.0682,0.0716,0.0728,0.074,0.0719,0.0713,0.0693,0.0663,0.0624,0.0597,0.0599,0.0594,0.0577,0.0504,0.0484,0.0474,0.0568,0.0567,0.0566,0.0491,0,0.0411,0.0453,0.0486,0.0542,0.0566,0.062,0.0666,0.072,0.0757,0.0781,0.0744,0.0746,0.0731,0.0724,0.0685,0.063,0.058,0.0621,0.0489,0.0485,0.0472,0.0465,0.0459,0.0391,0.0484,0.0483,0.0482,0,0.0442,0.0457,0.05,0.0561,0.0582,0.0625,0.0712,0.0758,0.0803,0.0828,0.0827,0.0809,0.0778,0.0735,0.0648,0.0681,0.0597,0.0535,0.053,0.048,0.0451,0.0391,0.0374,0.047,0.0471,0.0472,0.0473,0,0.0435,0.0485,0.0514,0.0536,0.0605,0.064,0.069,0.077,0.0817,0.0849,0.0883,0.0845,0.0823,0.0728,0.0651,0.0645,0.0529,0.0498,0.0388,0.0386,0.0338,0.0334,0.0384,0.0384,0.0385,0.0385,0.0385,0,0.0446,0.0472,0.0507,0.0524,0.0573,0.0632,0.0704,0.0762,0.0826,0.0882,0.0898,0.0914,0.0819,0.0759,0.0658,0.0531,0.0538,0.0391,0.036,0.0364,0.0363,0.0393,0.0395,0.0382,0.0383,0.0383,0.0384,0,0.0435,0.046,0.0496,0.0552,0.0568,0.061,0.0704,0.0758,0.0843,0.0904,0.0914,0.0955,0.0895,0.0792,0.0636,0.0549,0.0416,0.0346,0.0374,0.0347,0.03,0.0307,0.0219,0.0217,0.0216,0.0215,0.0214,0,0.0427,0.0439,0.0503,0.0527,0.0548,0.0604,0.0651,0.0744,0.0808,0.0933,0.0953,0.0936,0.092,0.0733,0.057,0.0385,0.0361,0.0249,0.0219,0.0302,0.028,0.0289,0.0297,0.0187,0.0186,0.0185,0.0185,0,0.0404,0.0441,0.0468,0.0513,0.0556,0.0607,0.0677,0.0724,0.0845,0.092,0.1007,0.1002,0.0861,0.0678,0.0449,0.034,0.0292,0.0224,0.0288,0.0236,0.0267,0.0248,0.0257,0.0177,0.0178,0.0179,0.0179,0.0179,0.0398,0.0418,0.0468,0.0505,0.0558,0.0616,0.0665,0.0734,0.0826,0.0928,0.0964,0.0946,0.0778,0.0456,0.0327,0.0215,0.0202,0.0123,0.0128,0.0132,0.0148,0.0175,0.0072,0.0073,0.0073,0.0073,0.0073,0,0.0383,0.0416,0.0452,0.0519,0.0568,0.0602,0.0693,0.0731,0.0815,0.0866,0.0915,0.0725,0.0553,0.0402,0.0208,0.0088,0.0121,0.0065,0.0103,0.0109,0.0115,0.0132,0.0051,0.0051,0.0051,0.0051,0,0,0.0384,0.0407,0.0419,0.0493,0.0554,0.0619,0.067,0.0717,0.0762,0.0757,0.0738,0.0698,0.0525,0.0352,0.0212,0.0129,0.0167,0.014,0.0162,0.0228,0.0236,0.0142,0.0175,0,0,0,0,0]}],[{"header":{"parameterUnit":"m.s-1","parameterCategory":2,"la1":30.2991,"la2":30.254,"lo1":-89.0895,"lo2":-89.0444,"dy":0.0017,"dx":0.0017,"nx":28,"ny":28,"refTime":"2025-06-17T03:00:00:Z","depth":"4","parameterNumber":2,"parameterNumberName":"U-component_of_CURRENTS"},"data":[0,0,0,0,0,0,0,0,0,0,0,0,0,0,0,0,0,0,0,0,0,0,0,0,0,0,0,0,0,0,0,0,0,0,0,0,0,0,0,0,0,0,0,0,0,0,0,0,0,0,0,0,0,0,0,0,0,0,-0.0515,-0.0515,0,-0.0582,-0.0583,-0.0584,-0.0663,-0.0664,-0.0665,-0.0665,-0.0659,-0.0658,-0.0657,0,0,0,0,0,0,0,0,0,0,0,0,0,-0.0481,-0.0482,-0.0515,-0.0515,-0.0516,-0.0582,-0.0583,-0.0585,-0.0663,-0.0664,-0.0665,-0.0665,-0.0659,-0.0658,-0.0657,0,0,0,0,0,0,0,0,0,0,0,0,0,-0.0522,-0.0482,-0.0515,-0.0558,-0.0562,-0.0581,-0.0583,-0.0585,-0.0663,-0.0664,-0.0665,-0.0666,-0.0659,-0.0658,-0.0657,-0.063,0,0,-0.0653,-0.0653,0,0,0,0,0,0,0,0,-0.052,-0.0524,-0.0552,-0.0555,-0.056,-0.061,-0.0568,-0.0594,-0.0663,-0.0631,-0.0665,-0.0666,-0.0631,-0.0632,-0.0652,-0.063,-0.063,-0.0653,-0.0652,-0.0652,-0.0652,0,0,0,0,0,0,0,-0.0517,-0.0522,-0.0548,-0.0552,-0.0557,-0.0582,-0.059,-0.0575,-0.0628,-0.0634,-0.0639,-0.0636,-0.0633,-0.0653,-0.0652,-0.063,-0.0653,-0.0652,-0.0651,-0.0651,-0.0643,-0.0644,0,0,0,0,0,0,-0.0494,-0.0519,-0.0546,-0.0549,-0.0535,-0.0582,-0.059,-0.0598,-0.063,-0.0635,-0.0635,-0.0639,-0.0655,-0.0654,-0.0652,-0.0669,-0.0652,-0.0651,-0.065,-0.0643,-0.0643,-0.0644,0,0,0,0,0,0,-0.0493,-0.0496,-0.0543,-0.053,-0.0537,-0.058,-0.0589,-0.0598,-0.0657,-0.063,-0.0635,-0.0686,-0.0656,-0.0654,-0.0667,-0.0667,-0.065,-0.0649,-0.0642,-0.0643,-0.0644,-0.0672,0,0,0,0,0,0,-0.0492,-0.0496,-0.0512,-0.0529,-0.0537,-0.0575,-0.0587,-0.0599,-0.0648,-0.0655,-0.0674,-0.0673,-0.0656,-0.0669,-0.0665,-0.0665,-0.0648,-0.0641,-0.0642,-0.0643,-0.0671,-0.0674,-0.0677,0,0,0,0,0,-0.0491,-0.0501,-0.0513,-0.0517,-0.0552,-0.0576,-0.0584,-0.0621,-0.0649,-0.0679,-0.069,-0.0675,-0.0672,-0.0668,-0.0664,-0.0664,-0.0641,-0.0642,-0.0643,-0.0669,-0.0673,-0.0677,0,0,0,0,0,0,-0.0493,-0.0509,-0.0524,-0.0539,-0.0565,-0.0587,-0.0621,-0.0643,-0.0681,-0.0703,-0.0684,-0.0682,-0.0692,-0.0678,-0.0675,-0.0666,-0.0652,-0.0653,-0.0673,-0.0677,-0.068,-0.0673,-0.0647,0,0,0,0,0,-0.0498,-0.0519,-0.0532,-0.0551,-0.057,-0.0606,-0.0628,-0.0657,-0.0678,-0.0701,-0.0694,-0.0694,-0.0687,-0.0686,-0.0676,-0.0673,-0.066,-0.067,-0.0673,-0.0676,-0.0668,-0.0655,-0.0656,-0.0647,-0.0647,-0.0647,0,0,-0.0503,-0.0515,-0.0529,-0.0555,-0.0589,-0.0612,-0.0627,-0.0677,-0.0696,-0.0687,-0.0716,-0.0708,-0.0691,-0.0688,-0.0689,-0.068,-0.0675,-0.0677,-0.0679,-0.067,-0.0656,-0.0657,-0.0658,-0.0648,-0.0648,-0.0648,0,0,-0.0513,-0.0544,-0.0564,-0.0585,-0.0629,-0.065,-0.067,-0.0704,-0.0731,-0.0745,-0.0743,-0.0748,-0.0726,-0.0718,-0.0709,-0.0725,-0.0693,-0.0714,-0.0718,-0.0706,-0.0707,-0.0707,-0.0704,-0.0704,-0.0712,-0.0712,-0.0712,0,-0.0522,-0.0544,-0.0575,-0.0594,-0.0617,-0.0668,-0.0697,-0.0722,-0.0749,-0.0755,-0.0758,-0.0742,-0.074,-0.073,-0.0733,-0.0732,-0.0714,-0.0706,-0.071,-0.0709,-0.0709,-0.0706,-0.0705,-0.0714,-0.0713,-0.0713,-0.0713,0,-0.054,-0.0563,-0.0583,-0.0624,-0.0655,-0.0695,-0.0723,-0.0757,-0.0785,-0.0783,-0.0788,-0.078,-0.076,-0.0763,-0.075,-0.0741,-0.0726,-0.0718,-0.0699,-0.0711,-0.0708,-0.0706,-0.0716,-0.0715,-0.0715,-0.0714,0,0,-0.0535,-0.0586,-0.0592,-0.0613,-0.068,-0.07,-0.0747,-0.078,-0.0799,-0.0805,-0.0802,-0.0798,-0.0781,-0.077,-0.0757,-0.075,-0.0746,-0.0725,-0.0724,-0.072,-0.0713,-0.0639,-0.0631,-0.0725,-0.0724,-0.0724,-0.0717,0,-0.0546,-0.0579,-0.0606,-0.0647,-0.0675,-0.0729,-0.0761,-0.0796,-0.0813,-0.0813,-0.0811,-0.079,-0.0785,-0.0768,-0.0763,-0.0749,-0.0739,-0.0748,-0.0703,-0.0702,-0.0633,-0.0625,-0.0723,-0.0715,-0.0715,-0.0715,-0.0715,0,-0.0548,-0.0573,-0.0619,-0.0662,-0.0683,-0.0723,-0.0789,-0.0806,-0.0825,-0.082,-0.0803,-0.0784,-0.0772,-0.0762,-0.0744,-0.0741,-0.0722,-0.0716,-0.0716,-0.063,-0.0624,-0.0697,-0.0712,-0.0712,-0.0712,-0.0712,-0.0712,0,-0.0529,-0.057,-0.0612,-0.063,-0.0696,-0.0743,-0.0781,-0.0825,-0.0827,-0.0808,-0.0793,-0.0776,-0.0756,-0.074,-0.0722,-0.0722,-0.07,-0.0706,-0.0626,-0.0622,-0.068,-0.068,-0.0682,-0.0682,-0.0682,-0.0682,-0.0682,0,-0.0522,-0.0543,-0.0615,-0.0638,-0.0695,-0.0738,-0.0784,-0.0807,-0.0818,-0.08,-0.078,-0.0754,-0.0742,-0.0726,-0.0717,-0.0661,-0.0695,-0.0617,-0.0606,-0.0695,-0.0697,-0.068,-0.068,-0.0682,-0.0682,-0.0682,-0.0682,0,-0.0496,-0.0537,-0.0577,-0.0661,-0.0694,-0.0731,-0.079,-0.0801,-0.0804,-0.078,-0.0762,-0.0733,-0.0687,-0.0681,-0.0657,-0.0639,-0.0609,-0.0579,-0.0679,-0.0676,-0.0546,-0.0547,-0.0493,-0.049,-0.0487,-0.0485,-0.0484,0,-0.049,-0.0513,-0.0596,-0.0628,-0.0681,-0.0735,-0.0779,-0.0799,-0.08,-0.0761,-0.0748,-0.0689,-0.066,-0.0551,-0.0576,-0.0538,-0.0525,-0.0525,-0.0527,-0.0526,-0.0522,-0.0528,-0.0533,-0.048,-0.0479,-0.0479,-0.0478,0,-0.0476,-0.0512,-0.0546,-0.0622,-0.0682,-0.0706,-0.0766,-0.0741,-0.0737,-0.0761,-0.0647,-0.058,-0.0523,-0.0481,-0.0442,-0.0432,-0.0538,-0.0499,-0.0504,-0.0507,-0.051,-0.051,-0.0517,-0.0469,-0.0471,-0.0471,-0.0472,0,-0.0473,-0.0483,-0.0538,-0.0592,-0.0648,-0.0651,-0.0677,-0.0659,-0.0639,-0.06,-0.0575,-0.0501,-0.0499,-0.0427,-0.0414,-0.0369,-0.0362,-0.036,-0.0372,-0.0382,-0.0351,-0.034,-0.0224,0,0,0,0,0,-0.0465,-0.0459,-0.0502,-0.0527,-0.0573,-0.0619,-0.0658,-0.0672,-0.068,-0.0565,-0.0547,-0.0471,-0.0371,-0.0366,-0.0292,-0.0409,-0.04,-0.0331,-0.0413,-0.0423,-0.0432,-0.0407,0,0,0,0,0,0,-0.0449,-0.0479,-0.0478,-0.0465,-0.0479,-0.0515,-0.0539,-0.0547,-0.0483,-0.0483,-0.0419,-0.0446,-0.0362,-0.0376,-0.0277,-0.0281,-0.0323,-0.0321,-0.032,-0.0417,-0.0426,-0.0434,-0.0411,0,0,0,0,0]},{"header":{"parameterUnit":"m.s-1","parameterCategory":2,"la1":30.2991,"la2":30.254,"lo1":-89.0895,"lo2":-89.0444,"dy":0.0017,"dx":0.0017,"nx":28,"ny":28,"refTime":"2025-06-17T03:00:00:Z","depth":"4","parameterNumber":3,"parameterNumberName":"V-component_of_CURRENTS"},"data":[0,0,0,0,0,0,0,0,0,0,0,0,0,0,0,0,0,0,0,0,0,0,0,0,0,0,0,0,0,0,0,0,0,0,0,0,0,0,0,0,0,0,0,0,0,0,0,0,0,0,0,0,0,0,0,0,0,0,-0.0022,-0.0022,0,-0.0105,-0.0106,-0.0107,-0.0233,-0.0235,-0.0237,-0.0238,-0.0422,-0.0425,-0.0428,0,0,0,0,0,0,0,0,0,0,0,0,0,0.0015,0.0015,-0.0022,-0.0022,-0.0023,-0.0104,-0.0106,-0.0108,-0.0233,-0.0235,-0.0237,-0.0239,-0.0421,-0.0424,-0.0428,0,0,0,0,0,0,0,0,0,0,0,0,0,-0.0033,0.0014,-0.0022,-0.0091,-0.0097,-0.0104,-0.0106,-0.0108,-0.0233,-0.0235,-0.0238,-0.024,-0.0419,-0.0424,-0.0429,-0.0409,0,0,-0.0444,-0.0446,0,0,0,0,0,0,0,0,-0.003,-0.0035,-0.008,-0.0086,-0.0093,-0.0156,-0.016,-0.0212,-0.0232,-0.0188,-0.0238,-0.0241,-0.0336,-0.0348,-0.0365,-0.0417,-0.0425,-0.0445,-0.0448,-0.045,-0.0451,0,0,0,0,0,0,0,-0.0027,-0.0032,-0.0061,-0.008,-0.0088,-0.0121,-0.0132,-0.017,-0.0253,-0.0192,-0.02,-0.0198,-0.0342,-0.036,-0.0371,-0.0428,-0.0444,-0.0449,-0.0452,-0.0454,-0.0562,-0.0562,0,0,0,0,0,0,-0.0001,-0.0029,-0.0058,-0.0063,-0.0061,-0.0119,-0.0131,-0.0138,-0.0251,-0.0268,-0.0196,-0.0204,-0.035,-0.0365,-0.0378,-0.0453,-0.045,-0.0454,-0.0457,-0.0562,-0.0562,-0.0562,0,0,0,0,0,0,0.0,-0.0003,-0.0055,-0.0043,-0.0051,-0.0117,-0.0124,-0.0138,-0.0198,-0.0252,-0.0273,-0.0245,-0.0353,-0.0371,-0.0444,-0.0458,-0.0457,-0.0461,-0.0563,-0.0562,-0.0562,-0.0544,0,0,0,0,0,0,0.0001,-0.0002,-0.0007,-0.0041,-0.005,-0.0077,-0.0121,-0.0138,-0.0188,-0.02,-0.03,-0.0317,-0.0356,-0.0436,-0.0449,-0.0464,-0.0465,-0.0563,-0.0562,-0.0562,-0.0545,-0.0543,-0.0542,0,0,0,0,0,0.0003,-0.0003,-0.0007,-0.001,-0.0052,-0.0076,-0.0086,-0.0145,-0.0188,-0.0211,-0.0282,-0.0316,-0.0444,-0.044,-0.0455,-0.0473,-0.0563,-0.0563,-0.0562,-0.0545,-0.0543,-0.0542,0,0,0,0,0,0,-0.0001,-0.0016,-0.0022,-0.0035,-0.0054,-0.0096,-0.0115,-0.0157,-0.023,-0.0258,-0.0323,-0.0344,-0.0409,-0.0438,-0.0432,-0.05,-0.0505,-0.0508,-0.0487,-0.0486,-0.0485,-0.0462,-0.0469,0,0,0,0,0,0.0009,0.0001,-0.0016,-0.0026,-0.0031,-0.0076,-0.0097,-0.0141,-0.0198,-0.0236,-0.0304,-0.0367,-0.0408,-0.0449,-0.049,-0.0533,-0.0517,-0.0549,-0.0548,-0.0547,-0.0537,-0.0516,-0.0512,-0.0562,-0.0562,-0.0562,0,0,0.0009,-0.0001,-0.0005,-0.0025,-0.0044,-0.0059,-0.01,-0.014,-0.017,-0.024,-0.032,-0.0369,-0.0417,-0.0465,-0.0496,-0.0502,-0.0522,-0.0547,-0.0545,-0.0536,-0.0515,-0.051,-0.0506,-0.0561,-0.0561,-0.0561,0,0,0.0006,-0.0003,-0.0008,-0.0019,-0.0045,-0.0068,-0.0085,-0.0143,-0.0188,-0.0252,-0.0304,-0.0355,-0.0442,-0.0466,-0.0489,-0.0499,-0.0511,-0.0528,-0.0513,-0.0494,-0.0489,-0.0485,-0.0444,-0.0436,-0.0532,-0.0531,-0.0531,0,0.0006,-0.0001,-0.0015,-0.0021,-0.0032,-0.0073,-0.009,-0.0124,-0.0209,-0.024,-0.0279,-0.0382,-0.0429,-0.046,-0.0472,-0.0496,-0.0486,-0.0519,-0.0491,-0.0486,-0.0482,-0.0441,-0.0433,-0.0531,-0.0531,-0.0531,-0.0531,0,0.0002,-0.0002,-0.0006,-0.002,-0.0038,-0.0059,-0.0091,-0.0138,-0.0198,-0.0234,-0.0299,-0.0352,-0.0414,-0.0432,-0.0465,-0.0467,-0.0468,-0.0486,-0.0492,-0.0476,-0.0434,-0.0425,-0.0529,-0.053,-0.053,-0.053,0,0,0.0002,-0.0006,-0.0005,-0.0011,-0.0044,-0.0061,-0.0098,-0.0137,-0.0173,-0.0238,-0.0277,-0.0336,-0.0376,-0.0401,-0.0441,-0.0429,-0.0393,-0.0456,-0.0456,-0.0409,-0.0339,-0.0362,-0.0355,-0.0419,-0.0418,-0.0417,-0.0316,0,0.0004,-0.0003,-0.0011,-0.0025,-0.0037,-0.007,-0.0098,-0.0144,-0.0196,-0.0242,-0.0273,-0.0324,-0.0358,-0.04,-0.0391,-0.04,-0.0373,-0.0417,-0.0367,-0.0364,-0.0383,-0.0348,-0.0413,-0.0309,-0.0307,-0.0306,-0.0305,0,0.0002,-0.0004,-0.0013,-0.0037,-0.0044,-0.0063,-0.0121,-0.0149,-0.0198,-0.024,-0.0281,-0.0318,-0.0323,-0.0353,-0.032,-0.0356,-0.0344,-0.0333,-0.033,-0.0352,-0.0373,-0.0333,-0.029,-0.0291,-0.0292,-0.0293,-0.0294,0,-0.0003,-0.0008,-0.0016,-0.002,-0.0051,-0.0076,-0.0106,-0.0162,-0.0188,-0.0238,-0.0261,-0.0282,-0.0292,-0.0278,-0.0269,-0.0304,-0.0209,-0.0252,-0.0243,-0.0244,-0.0261,-0.0267,-0.0203,-0.0203,-0.0204,-0.0204,-0.0204,0,-0.0006,-0.0011,-0.0019,-0.0024,-0.0054,-0.0079,-0.0123,-0.016,-0.0198,-0.0226,-0.0259,-0.0282,-0.0278,-0.0243,-0.0237,-0.0202,-0.0177,-0.0222,-0.0219,-0.0255,-0.0261,-0.0254,-0.0261,-0.02,-0.0201,-0.0202,-0.0202,0,-0.0016,-0.0013,-0.0023,-0.0045,-0.0058,-0.0085,-0.0131,-0.0168,-0.019,-0.0222,-0.0234,-0.0255,-0.0236,-0.0197,-0.0157,-0.0156,-0.0121,-0.011,-0.0112,-0.0114,-0.0176,-0.0183,-0.0103,-0.0103,-0.0103,-0.0103,-0.0103,0,-0.0021,-0.0024,-0.0036,-0.0051,-0.0064,-0.0102,-0.0144,-0.0178,-0.0212,-0.022,-0.0237,-0.0217,-0.0235,-0.0144,-0.0141,-0.0082,-0.0097,-0.0053,-0.0154,-0.016,-0.0165,-0.0173,-0.018,-0.0103,-0.0103,-0.0103,-0.0103,0,-0.003,-0.0028,-0.0034,-0.0067,-0.0104,-0.0142,-0.0195,-0.0206,-0.0241,-0.0239,-0.0234,-0.0221,-0.0189,-0.0168,-0.0097,-0.0077,-0.0074,-0.0054,-0.0056,-0.015,-0.0159,-0.0166,-0.0173,-0.0103,-0.0103,-0.0103,-0.0103,0,-0.0036,-0.0043,-0.0051,-0.0077,-0.0122,-0.0176,-0.0203,-0.0233,-0.025,-0.0243,-0.0246,-0.0215,-0.0197,-0.0165,-0.0117,-0.0079,-0.0115,-0.0115,-0.0114,-0.0114,-0.0172,-0.0187,-0.0121,0,0,0,0,0,-0.0047,-0.0048,-0.0067,-0.0108,-0.0154,-0.0182,-0.0234,-0.0257,-0.0269,-0.0262,-0.0245,-0.0224,-0.0183,-0.0176,-0.0144,-0.0161,-0.0123,-0.0127,-0.0126,-0.0103,-0.0103,-0.0175,0,0,0,0,0,0,-0.0058,-0.0068,-0.0063,-0.0119,-0.0151,-0.0222,-0.0251,-0.0269,-0.0263,-0.0253,-0.0227,-0.0213,-0.0172,-0.0178,-0.0133,-0.013,-0.0129,-0.0105,-0.0105,-0.0103,-0.0103,-0.0103,-0.0177,0,0,0,0,0]}]]